Location: Unspecified
(0.0000°N, 0.0000°E)
Time: 18:52:25
(UTC+00:00)

ATLAS 5 CENTAUR DEB - Visible Passes

Search period start: 14 January 2025 00:00
Search period end: 24 January 2025 00:00
Orbit: 8404 x 39200 km, 12.8° (Epoch: 13 January)

Date Brightness Start Highest point End Pass type
(mag) Time Alt. Az. Time Alt. Az. Time Alt. Az.
14 Jan ? 18:15:18 10° E 21:12:45 22° E 22:57:02 10° ENE visible
15 Jan ? 15:37:43 10° W 22:45:51 86° SSW 05:40:43 10° E daylight
16 Jan ? 22:30:16 10° WSW 00:11:08 20° WSW 02:52:27 10° W visible
17 Jan ? 17:03:08 10° E 21:41:36 32° E 23:52:46 10° ENE visible
18 Jan ? 16:14:20 10° W 21:42:48 82° SSW 06:17:09 10° E daylight
20 Jan ? 10:42:40 10° WNW 22:10:40 43° E 00:39:25 10° ENE visible
21 Jan ? 16:51:28 10° W 20:46:30 77° SW 06:53:45 10° E daylight
